Simultaneous Nadir Overpasses (SNOs) Predictions

Prediction of SNOs between GOES-17 and METOP-A Satellite Orbit:

Table of predicted SNOs for the next 14.0 days since TLE Epoch: 9/26/2020
Index Date Time (GOES-17) GOES-17 Lat,Lon METOP-A Lat,Lon Distance(km) Time Diff (sec)
1 09/26/2020 17:55:55 -0.04,-137.21 0.86,-141.17 452.35 80
2 09/27/2020 17:37:56 -0.03,-137.20 -0.23,-136.19 114.59 80
3 09/29/2020 05:54:17 0.04,-137.20 -0.77,-140.83 413.93 80
4 09/30/2020 05:36:18 0.04,-137.19 0.31,-135.85 152.79 80
5 10/01/2020 17:52:31 -0.04,-137.19 0.65,-140.46 371.89 80
6 10/02/2020 17:34:32 -0.04,-137.18 -0.43,-135.48 194.65 80
7 10/04/2020 05:50:52 0.04,-137.17 -0.62,-140.10 334.50 80
8 10/05/2020 05:32:52 0.03,-137.16 0.46,-135.12 231.55 80
9 10/06/2020 17:49:05 -0.03,-137.14 0.56,-139.72 294.50 80
10 10/07/2020 17:31:06 -0.03,-137.12 -0.58,-134.75 271.10 80
11 10/09/2020 05:47:27 0.03,-137.10 -0.47,-139.38 259.50 80
